User: anonymous   Login
Location: Edmonton
(53.5500°N, 113.5000°W)
Time: 05:10:36
(UTC-07:00)
Language:

N. Korean satellite - Orbit

View from above orbital plane
View from above orbital plane
View from above satellite
View from above satellite

Ground track
Ground track

The orbit data is extracted from the following two-line orbital elements,

1 39026U 12072A   19318.51996799  .00001501  00000-0  56347-4 0  9995
2 39026  97.2157 316.9135 0036101 293.3561  66.3882 15.28166728384320
Epoch (UTC): 14 November 2019 12:28:45
Eccentricity: 0.0036101
inclination: 97.2157°
perigee height: 456 km
apogee height: 506 km
right ascension of ascending node: 316.9135°
argument of perigee: 293.3561°
revolutions per day: 15.28166728
mean anomaly at epoch: 66.3882°
orbit number at epoch: 38432

The dashed part of the orbit path shows where the satellite is in the earth's shadow,  

DLR